13 Nov
2017
13 Nov
'17
12:36 p.m.
The following are the preliminary TLEs for the ELaNa 14 (RadFxSat) launch scheduled for 09:47 UTC November 14, Tuesday (tomorrow) from Vandenberg AFB, CA.
ELaNa 14 1 00000U 17017A 17317.46018518 -.00000000 00000-0 00000-0 0 9999 2 00000 97.6969 249.5697 0258300 235.3028 178.8186 14.79656332 06
Ray Hoad WA5QGD Orbital Elements Manager